Weather History for Greenville, ME

Change the Weather History Date:

Thursday, October 11, 2012

  Actual Average (KMLT) Record (KMLT)
Temperature  
Mean Temperature 40 °F 47 °F  
Max Temperature 46 °F 57 °F 78 °F (2003)
Min Temperature 34 °F 37 °F 22 °F (1956)
Degree Days  
Heating Degree Days 25 18  
Month to date heating degree days 178  
Since 1 July heating degree days 506  
Cooling Degree Days 0 0  
Month to date cooling degree days 0  
Year to date cooling degree days 268  
Moisture  
Dew Point 30 °F    
Average Humidity 67    
Maximum Humidity 86    
Minimum Humidity 44    
Precipitation  
Precipitation 0.00 in 0.14 in 1.65 in (1971)
Month to date precipitation 1.56  
Year to date precipitation 32.21  
Sea Level Pressure  
Sea Level Pressure 29.84 in    
Wind  
Wind Speed 6 mph (NW)    
Max Wind Speed 14 mph    
Max Gust Speed 32 mph    
T = Trace of Precipitation, MM = Missing Value Source: NWS Daily Summary

Daily Weather History Graph

Daily Weather History Graph

Search for Another Location

Airport:

Trip Planner

Search our weather history database for the weather conditions in past years. The results will help you decide how hot, cold, wet, or windy it might be!

Date:

Astronomy

Oct. 11, 2012 Rise Set
Actual Time 6:49 AM EDT 5:59 PM EDT
Civil Twilight 6:20 AM EDT 6:28 PM EDT
Nautical Twilight 5:45 AM EDT 7:03 PM EDT
Astronomical Twilight 5:11 AM EDT 7:37 PM EDT
Moon 2:13 AM EDT (10/11) 3:43 PM EDT (10/11)
Length of Visible Light 12h 08m
Length of Day
11h 09m
Waning Crescent, 18% of the Moon is Illuminated
Oct 11
Waning Crescent
Oct 15
New
Oct 21
First Quarter
Oct 29
Full
Nov 6
Last Quarter

Hourly Weather History & Observations

Time (EDT) Temp. Windchill Dew Point Humidity Pressure Visibility Wind Dir Wind Speed Gust Speed Precip Events Conditions
12:56 AM 44.1 °F 40.8 °F 39.9 °F 85% 29.63 in - Variable 5.8 mph 17.3 mph N/A   Unknown
1:56 AM 43.0 °F 38.2 °F 39.0 °F 86% 29.62 in - NW 8.1 mph 17.3 mph N/A   Unknown
2:56 AM 42.1 °F 37.7 °F 37.9 °F 85% 29.62 in - Variable 6.9 mph 21.9 mph N/A   Unknown
3:56 AM 41.0 °F 36.4 °F 36.0 °F 82% 29.64 in - Variable 6.9 mph - N/A   Unknown
4:56 AM 41.0 °F 37.1 °F 36.0 °F 82% 29.67 in - Variable 5.8 mph - N/A   Unknown
5:56 AM 41.0 °F 37.1 °F 34.0 °F 76% 29.69 in - Variable 5.8 mph - N/A   Unknown
6:56 AM 39.9 °F - 34.0 °F 79% 29.71 in - Calm Calm - N/A   Unknown
7:56 AM 39.9 °F 36.7 °F 34.0 °F 79% 29.74 in - Variable 4.6 mph - N/A   Unknown
8:56 AM 41.0 °F 35.2 °F 30.9 °F 67% 29.77 in - WNW 9.2 mph 23.0 mph N/A   Unknown
9:56 AM 39.9 °F 35.1 °F 28.9 °F 65% 29.83 in - Variable 6.9 mph 32.2 mph N/A   Unknown
10:56 AM 39.9 °F 32.1 °F 30.0 °F 68% 29.83 in - NW 13.8 mph 27.6 mph N/A   Unknown
11:56 AM 42.1 °F 35.2 °F 30.0 °F 62% 29.85 in - NW 12.7 mph 25.3 mph N/A   Unknown
12:56 PM 45.0 °F 41.8 °F 28.0 °F 52% 29.86 in - Variable 5.8 mph 29.9 mph N/A   Unknown
1:56 PM 43.0 °F 39.5 °F 24.1 °F 47% 29.90 in - Variable 5.8 mph 25.3 mph N/A   Unknown
2:56 PM 46.9 °F - 26.1 °F 44% 29.92 in - Variable 4.6 mph - N/A   Unknown
3:56 PM 45.0 °F 42.6 °F 24.1 °F 44% 29.95 in - Variable 4.6 mph - N/A   Unknown
4:56 PM 43.0 °F 40.3 °F 23.0 °F 45% 29.97 in - Variable 4.6 mph - N/A   Unknown
5:56 PM 41.0 °F 39.0 °F 25.0 °F 53% 29.99 in - Variable 3.5 mph - N/A   Unknown
6:56 PM 39.0 °F - 26.1 °F 60% 30.00 in - Calm Calm - N/A   Unknown
7:56 PM 36.0 °F - 26.1 °F 67% 30.02 in - Calm Calm - N/A   Unknown
8:56 PM 36.0 °F - 26.1 °F 67% 30.02 in - Calm Calm - N/A   Unknown
9:56 PM 34.0 °F - 26.1 °F 73% 30.02 in - Calm Calm - N/A   Unknown
10:56 PM 35.1 °F - 27.0 °F 72% 30.01 in - Calm Calm - N/A   Unknown
11:56 PM 37.9 °F 34.4 °F 28.0 °F 68% 29.99 in - Variable 4.6 mph - N/A   Unknown